Regional Weather Roundup
Issued by NWS

Home | Current Version | Previous Version | Graphics & Text | Print | Product List | Glossary On
Versions: 1 2 3 4 5 6 7 8 9 10 11 12 13 14 15 16 17 18 19 20 21 22 23 24 25 26 27 28 29 30 31 32 33 34 35 36 37 38 39 40 41 42 43 44 45 46 47 48 49 50
584
ASUS43 KMPX 240610
RWRMN
WEATHER ROUNDUP FOR MINNESOTA
NATIONAL WEATHER SERVICE TWIN CITIES/CHANHASSEN MN
100 AM CDT TUE OCT 24 2017


NOTE: "FAIR" INDICATES FEW OR NO CLOUDS BELOW 12,000 FEET WITH NO
SIGNIFICANT WEATHER AND/OR OBSTRUCTIONS TO VISIBILITY. N/A MEANS
CURRENT SKY AND/OR WEATHER CONDITIONS ARE NOT AVAILABLE.

MNZ060>063-068>070-240700-
   Twin Cities Metro

CITY           SKY/WX    TMP DP  RH WIND       PRES   REMARKS
TWIN CITIES    MOCLDY    43  30  60 NW22G31   29.83F
6HR MIN TEMP:  43; 6HR MAX TEMP:  50;

ST PAUL        CLOUDY    44  30  57 NW17      29.83F
CRYSTAL        MOCLDY    42  27  55 NW16G23   29.83F
BLAINE         CLOUDY    45  30  57 NW14      29.83S
LAKEVILLE      CLOUDY    41  30  65 NW18G29   29.82F
EDEN PRAIRIE   PTCLDY    43  29  57 NW22G32   29.83F
6HR MIN TEMP:  43; 6HR MAX TEMP:  51;

SOUTH ST PAUL  CLOUDY    45  29  54 NW14G25   29.81F
LAKE ELMO      CLOUDY    45  32  61 NW16G28   29.82S
$$
MNZ001>005-007-008-013>017-022>024-027-028-240700-
   Northwest Minnesota

CITY           SKY/WX    TMP DP  RH WIND       PRES   REMARKS
BEMIDJI        CLOUDY    38  28  68 N20G30    30.02R
HALLOCK        MOCLDY    36  28  75 N13G20    30.17S
ROSEAU         CLEAR     37  30  75 N13G18    30.10S
WARROAD        CLEAR     37  30  75 NW12      30.09S
THIEF RVR FALL MOCLDY    35  28  75 N17       30.12R WCI  25
CROOKSTON      CLEAR     36  30  80 N20G25    30.15S
FOSSTON        CLOUDY    36  27  69 NW18G24   30.08S
DETROIT LAKES  CLOUDY    37  30  75 N18G30    30.07S
MOORHEAD       CLOUDY    36  28  75 NW16      30.14S
PARK RAPIDS    CLOUDY    39  29  67 N21G31    29.99R
MAHNOMEN       CLOUDY    37  28  72 N17G25    30.08S
$$
MNZ006-009>011-018-025>026-240700-
   North Central Minnesota

CITY           SKY/WX    TMP DP  RH WIND       PRES   REMARKS
BAUDETTE       CLOUDY    40  28  62 N21G32    30.03R
FLAG ISLAND    PTCLDY    39  30  70 N23       30.06S
INTL FALLS     CLOUDY    39  30  70 N20G26    29.96S
6HR MIN TEMP:  39; 6HR MAX TEMP:  43; 6HR PCP: TRACE;

WASKISH        CLOUDY    39  30  70 N8G20     30.01S
BIG FORK       CLOUDY    39  32  75 N9G22     29.94S
LONGVILLE      CLOUDY    39  34  81 NW15G25   29.93F
GRAND RAPIDS   CLOUDY    41  32  70 N24G33    29.90F
CRANE LAKE     CLOUDY    37  36  93 N13G26    29.91F
ORR            CLOUDY    37  32  81 NW12G23   29.87F
COOK           DRIZZLE   39  34  81 N13G25    29.87F
WALKER         CLOUDY    39  31  72 N23G29    29.97F
$$
MNZ012-019>021-037-240700-
   Northeast Minnesota

CITY           SKY/WX    TMP DP  RH WIND       PRES   REMARKS
DULUTH         CLOUDY    41  35  79 N24G35    29.76F
6HR MIN TEMP:  41; 6HR MAX TEMP:  45; 6HR PCP: TRACE;

ELY            LGT RAIN  37  36  93 N9G22     29.81F
HIBBING        CLOUDY    39  32  76 N17G30    29.85F
EVELETH        PTCLDY    40  36  86 N17G26    29.83F
DULUTH HARBOR  CLOUDY    46  37  71 N13G23    29.80S
TWO HARBORS    PTCLDY    45  36  70 N12G18    29.71R
SILVER BAY     CLOUDY    43  36  75 NW14G25   29.70S
GRAND MARAIS     N/A     48  42  80 N18G35    29.64F
G MARAIS ARPRT DRIZZLE   41  37  87 NW18G28   29.67F
$$
MNZ029>031-032-039>041-046>048-054>057-064-240700-
   West Central Minnesota

CITY           SKY/WX    TMP DP  RH WIND       PRES   REMARKS
FERGUS FALLS   MOCLDY    37  27  65 N18G33    30.09S
WHEATON        CLOUDY    37  28  70 NW18G29   30.12F
MORRIS         MOCLDY    37  28  70 N21G30    30.04S
ALEXANDRIA     MOCLDY    39  28  64 N18G35    30.00S
ELBOW LAKE     CLOUDY    38  29  70 NW21G31   30.06S
WADENA         CLOUDY    37  28  70 N15G29    29.99S
GLENWOOD       CLEAR     37  28  70 NW18G26   29.98S
APPLETON       MOCLDY    39  28  65 NW18G28   30.05S
BENSON         MOCLDY    37  28  70 N17G23    30.03S
ORTONVILLE     MOCLDY    37  28  70 N22G30    30.08S
MADISON        PTCLDY    41  30  65 N18G35    30.07R
WILLMAR        FAIR      39  30  70 NW17G23   29.98S
$$
MNZ033>034-036-042>043-049>051-058-059-240700-
   Central Minnesota

CITY           SKY/WX    TMP DP  RH WIND       PRES   REMARKS
ST CLOUD       CLOUDY    40  29  64 NW18G28   29.88F
6HR MIN TEMP:  39; 6HR MAX TEMP:  48;

SAUK CENTRE    FAIR      37  28  68 NW20G28   29.95F
PAYNESVILLE    CLEAR     38  29  72 NW14G21   29.94F
AITKIN         CLOUDY    39  30  70 NW16G23   29.87F
PINE RIVER     CLOUDY    39  30  70 N14G23    29.96F
BRAINERD       CLOUDY    43  31  62 N28G36    29.91F
STAPLES        CLOUDY    39  28  65 NW17G25   29.96F
LONG PRAIRIE   MOCLDY    36  28  75 W20G26    29.95F
LITTLE FALLS   CLOUDY    39  23  52 NW12G21   29.92F
LITCHFIELD     CLEAR     39  28  65 NW16G25   29.92F
BUFFALO        PTCLDY    40  28  62 NW14G20   29.89S
MAPLE LAKE     PTCLDY    41  31  67 NW16G23   29.89F
HUTCHINSON     CLEAR     40  30  68 NW16G24   29.92S
$$
MNZ037-044-045-052-053-240700-
   East Central Minnesota

CITY           SKY/WX    TMP DP  RH WIND       PRES   REMARKS
PRINCETON      CLOUDY    43  30  61 NW12G17   29.86S
MORA           MOCLDY    41  32  70 N16G23    29.86S
CAMBRIDGE      CLOUDY    46  34  61 NW8G20    29.84F
RUSH CITY      CLOUDY    43  32  65 N13G24    29.83F
MOOSE LAKE     CLOUDY    43  32  65 N15       29.81F
HINCKLEY       CLOUDY    43  34  70 N13G21    29.82F
CLOQUET        CLOUDY    43  30  61 NW22G31   29.79F
MCGREGOR       CLOUDY    41  32  70 NW22      29.86F
$$
MNZ071>073-080-081-089-090-097-098-240700-
   Southwest Minnesota

CITY           SKY/WX    TMP DP  RH WIND       PRES   REMARKS
MONTEVIDEO     MOCLDY    37  28  70 N21G29    30.02S
GRANITE FALLS  CLEAR     40  31  68 NW16G32   30.03S
CANBY          PTCLDY    39  31  72 W15G21    30.07S
MARSHALL       CLEAR     38  29  70 N20G30    30.02S
REDWOOD FALLS  PTCLDY    41  28  60 NW18G29   29.95F
OLIVIA         MOCLDY    41  30  65 N23G33    29.95F
PIPESTONE      CLEAR     41  28  60 N15G26    30.02F
WORTHINGTON    PTCLDY    42  31  64 NW22G36   30.00R
JACKSON        MOCLDY    43  32  65 NW31G41   29.94S
TRACY          PTCLDY    40  31  70 NW23G36   30.01S
SLAYTON        CLEAR     40  31  70 NW17G24   30.01S
$$
MNZ065>067-074>077-082>085-091>093-240700-
   South Central Minnesota

CITY           SKY/WX    TMP DP  RH WIND       PRES   REMARKS
NEW ULM          N/A     41  28  60 NW18G30   29.92R
ST JAMES       CLEAR     43  30  61 NW25      29.92F
FAIRMONT       CLEAR     44  31  60 NW30G36   29.90F
GLENCOE        CLEAR     41  31  66 NW12G21   29.89F
FARIBAULT      CLEAR     43  30  61 NW18G26   29.83F
OWATONNA       PTCLDY    43  30  61 NW23      29.83F
WASECA         MOCLDY    41  30  65 NW18G26   29.87S
$$
MNZ078>079-086>088-094>096-240700-
   Southeast Minnesota

CITY           SKY/WX    TMP DP  RH WIND       PRES   REMARKS
ROCHESTER      CLOUDY    43  30  60 NW18G26   29.76F
6HR MIN TEMP:  43; 6HR MAX TEMP:  47; 6HR PCP: TRACE;

RED WING       CLOUDY    46  28  49 NW12G21   29.77F
STANTON        CLOUDY    44  31  59 NW22      29.81S
DODGE CENTER   CLOUDY    43  28  56 NW18G26   29.79F
WINONA         CLOUDY    48  36  61 NW16G26   29.73F
AUSTIN         CLOUDY    45  28  53 NW23G31   29.79F
PRESTON        CLOUDY    44  30  59 NW15G25   29.75F
$$
ABBREVIATIONS USED IN REMARKS
   TC - TEMPERATURES IN CELSIUS
  WCI - WIND CHILL INDEX
   HX - HEAT INDEX
  VSB - VISIBILITY
$$




USA.gov is the U.S. government's official web portal to all federal, state and local government web resources and services.